User: anonymous   Login
Location: Ballingbuur
(53.0000°N, 5.7667°E)
Time: 15:45:01
(UTC+00:00)
Language:

Cosmos 2344 - Orbit

View from above orbital plane
View from above orbital plane
View from above satellite
View from above satellite

Ground track
Ground track

The orbit data is extracted from the following two-line orbital elements,

1 24827U 97028A   21058.88593734  .00000092  00000-0  16912-2 0  9994
2 24827  63.3131 208.8265 1032906  45.1091 101.4489 11.07926719960122
Epoch (UTC): 27 February 2021 21:15:44
Eccentricity: 0.1032906
inclination: 63.3131°
perigee height: 1243 km
apogee height: 2999 km
right ascension of ascending node: 208.8265°
argument of perigee: 45.1091°
revolutions per day: 11.07926719
mean anomaly at epoch: 101.4489°
orbit number at epoch: 96012

The dashed part of the orbit path shows where the satellite is in the earth's shadow,  

DLR